Location: Iwkowa
(49.8210°N, 20.5761°E)
Time: 23:11:57
(UTC+01:00)

ISS - Pass Details

Date: 01 February 2019
Orbit: 403 x 411 km, 51.6° (Epoch: 18 February)

Event Time Altitude Azimuth Distance (km) Brightness Sun altitude
Rises 18:56:38 0° 285° (WNW) 2,339 1.3 -23.4°
Reaches altitude 10° 18:58:43 10° 286° (WNW) 1,478 0.0 -23.7°
Enters shadow 19:00:51 37° 291° (WNW) 662 -2.3 -24.1°
